sat.trackr.live / text

‹ back to catalog

STARLINK-11242 [DTC]

NORAD 60903 · 2024-154A

PAYLOAD ACTIVE UNKNOWN

§ Identity

Operator
Country
US
Launch date
2024-08-31
Launch site
AFETR
Launch vehicle
Mass (kg)
RCS (m²)

Purposes: comms

External: N2YO · Heavens-Above · Gunter

§ Orbital elements

Epoch: 2026-05-25T04:38:12.250176Z

Period
91.74 min
Inclination
53.1585°
Eccentricity
0.0000882
Mean motion
15.69704598 rev/d
Perigee alt
359.1 km
Apogee alt
360.3 km
Semi-major
6,737.9 km
B*
1.0594e-5
RAAN
113.8740°
Arg perigee
84.0581°
Mean anomaly
276.0537°
Rev number
10,053

§ Raw data

STARLINK-11242 [DTC]1 60903U 24154A   26145.19319734  .00000695  00000+0  10594-4 0  99912 60903  53.1585 113.8740 0000882  84.0581 276.0537 15.69704598100538

JSON: /api/v1/satellites/60903 · /tle

For live sub-satellite position, see the globe view (requires WebGL).

§ Visibility from observer

Set your observer location to see the next 7 days of passes ≥ 10°. The values pass through the URL so the page stays shareable.

No JS? Fill the form by hand. The geolocation button needs JavaScript.